Location: Banksville Park
(38.5557°N, 75.1182°W)
Time: 04:08:32
(UTC+00:00)

Envisat - Pass Details

Date: 02 December 2020
Orbit: 764 x 766 km, 98.1° (Epoch: 16 January)

Event Time Altitude Azimuth Distance (km) Brightness Sun altitude
Rises 22:36:05 0° 184° (S) 3,217 6.6 -11.0°
Reaches altitude 10° 22:38:29 10° 191° (S) 2,295 5.9 -11.4°
Maximum altitude 22:43:16 42° 262° (W) 1,081 4.4 -12.3°
Drops below altitude 10° 22:48:05 10° 333° (NNW) 2,310 5.6 -13.2°
Sets 22:50:31 0° 340° (NNW) 3,241 6.3 -13.6°
